Flag for Lithuania Weather past 2 weeks in Vilnius, Lithuania

Now
46 °F

Clear.


Feels Like: 46 °F
Forecast: 42 / 67 °F
Wind: 1 mph from North

Location: Vilnius Airport

Current Time: Sep 17, 2014 at 5:13:17 AM

Latest Report: Sep 17, 2014 at 4:50 AM


Visibility: 5 mi

Pressure: 30.33 "Hg

Humidity: 87%

Dew point: 43 °F

Location of VilniusLocation

Historic Weather in Vilnius — Graph

°F

Vilnius temperature yesterday

Maximum temperature yesterday: 64 °F (at 4:20 PM)
Minimum temperature yesterday: 41 °F (at 2:50 AM)
Average temperature yesterday: 53 °F

Past Weeks' High & Low Weather Summary

 TemperatureHumidityPressure
High75 °F (Sep 12, 2:50 PM)100% (Sep 2, 3:20 AM)30.42 "Hg (Sep 2, 3:20 AM)
Low41 °F (Sep 15, 5:20 AM)31% (Sep 13, 2:20 PM)29.92 "Hg (Sep 9, 6:20 PM)
Average59 °F78%30.20 "Hg
* Reported Sep 2 3:20 AM — Sep 17 3:50 AM, Vilnius, Weather by CustomWeather, © 2014

Note: Actual official high and low records may vary slightly from our data, if they occured in-between our weather recording intervals... More about our weather records

Advertising

Vilnius weather history for previous 24 hours

 ConditionsComfort  
Time TempWeatherWind HumidityBarometerVisibility
3:50 AM
Sep 17
46 °FClear.1 mph87%30.33 "Hg5 mi
3:20 AM46 °FClear.1 mph93%30.36 "Hg5 mi
2:50 AM48 °FClear.1 mph87%30.33 "Hg5 mi
2:20 AM48 °FClear.1 mph87%30.33 "Hg5 mi
1:20 AM50 °FClear.1 mph88%30.33 "Hg5 mi
12:50 AM50 °FClear.No wind88%30.33 "Hg5 mi
12:20 AM50 °FClear.2 mph88%30.33 "Hg5 mi
11:50 PM
Sep 16
50 °FClear.2 mph88%30.33 "Hg5 mi
11:20 PM50 °FClear.No wind88%30.33 "Hg10 mi
10:50 PM50 °FClear.1 mph88%30.33 "Hg10 mi
10:20 PM52 °FClear.1 mph88%30.33 "Hg10 mi
9:20 PM52 °FClear.1 mph88%30.33 "Hg10 mi
8:50 PM54 °FClear.1 mph77%30.33 "Hg10 mi
8:20 PM55 °FSunny.1 mph72%30.33 "Hg10 mi
7:50 PM57 °FSunny.2 mph67%30.30 "Hg10 mi
7:20 PM61 °FSunny.2 mph59%30.30 "Hg10 mi
6:50 PM61 °FSunny.3 mph59%30.30 "Hg10 mi
6:20 PM63 °FPassing clouds.5 mph52%30.30 "HgN/A
5:50 PM63 °FPassing clouds.3 mph52%30.33 "HgN/A
5:20 PM63 °FPassing clouds.6 mph49%30.33 "HgN/A
4:50 PM64 °FPassing clouds.5 mph49%30.33 "HgN/A
4:20 PM64 °FPassing clouds.6 mph43%30.33 "HgN/A
3:50 PM63 °FPassing clouds.7 mph45%30.33 "HgN/A
3:20 PM63 °FPassing clouds.7 mph45%30.33 "HgN/A
2:50 PM63 °FPassing clouds.5 mph45%30.36 "HgN/A
2:20 PM63 °FPassing clouds.6 mph52%30.36 "HgN/A
1:50 PM63 °FPassing clouds.7 mph45%30.36 "HgN/A
1:20 PM61 °FPassing clouds.6 mph55%30.36 "HgN/A
12:50 PM61 °FPassing clouds.6 mph55%30.36 "HgN/A
12:20 PM61 °FPassing clouds.7 mph59%30.36 "HgN/A
11:50 AM61 °FPassing clouds.7 mph59%30.36 "HgN/A
11:20 AM59 °FSunny.9 mph59%30.39 "Hg10 mi
10:50 AM59 °FPassing clouds.6 mph63%30.36 "HgN/A
10:20 AM57 °FPassing clouds.3 mph72%30.36 "HgN/A
9:50 AM55 °FClear.2 mph77%30.36 "Hg5 mi
9:20 AM54 °FClear.2 mph82%30.36 "Hg5 mi
8:50 AM50 °FClear.2 mph94%30.36 "Hg4 mi
8:20 AM46 °FFog.3 mph100%30.36 "Hg2 mi
7:50 AM43 °FFog.3 mph100%30.36 "Hg2 mi
7:20 AM41 °FFog.2 mph100%30.36 "Hg2 mi
6:50 AM41 °FFog.2 mph100%30.36 "Hg1 mi
6:20 AM45 °FQuite cool.1 mph100%30.36 "Hg1 mi
6:01 AM45 °FFog.1 mph100%30.36 "Hg1 mi
5:20 AM43 °FFog.1 mph100%30.36 "Hg2 mi
Weather by CustomWeather, © 2014

See weather overviewHow to use our weather pages